Regional Weather Roundup
Issued by NWS Mt. Holly, NJ

Home | Current Version | Previous Version | Text Only | Print | Product List | Glossary On
Versions: 1 2 3 4 5 6 7 8 9 10 11 12 13 14 15 16 17 18 19 20 21 22 23 24 25 26 27 28
000
ASUS41 KPHI 241412
RWRPHI

REGIONAL WEATHER ROUNDUP
NATIONAL WEATHER SERVICE MOUNT HOLLY NJ
1000 AM EDT SUN JUL 24 2016

NOTE:  "FAIR" INDICATES FEW OR NO CLOUDS BELOW 12,000 FEET WITH NO
SIGNIFICANT WEATHER AND/OR OBSTRUCTIONS TO VISIBILITY.

 * = STATION DOES NOT REPORT PRECIPITATION (E.G. RAIN, SNOW, ETC.)
        OR FOG.

NJZ015>026-241500-
SOUTHERN NEW JERSEY

CITY           SKY/WX    TMP DP  RH WIND       PRES   REMARKS
POMONA         SUNNY     83  68  60 NE5       29.99R
WILDWOOD*      SUNNY     85  67  54 NE8       29.99R
MILLVILLE      SUNNY     85  65  51 E3        29.99R
WRIGHTSTOWN    SUNNY     84  61  46 VRB1      29.97S
MOUNT HOLLY    SUNNY     83  64  52 N5        29.99S
TRENTON        SUNNY     83  62  49 N5        29.99S

$$
NJZ001>014-241500-
NORTHERN NEW JERSEY

CITY           SKY/WX    TMP DP  RH WIND       PRES   REMARKS
SUSSEX         SUNNY     81  64  56 E5        30.01F
ANDOVER*         N/A     78  63  59 VRB3      30.03S
MORRISTOWN     MOSUNNY   82  63  51 CALM      30.00S
NEWARK         MOSUNNY   86  60  41 NW3       29.98F
TETERBORO      SUNNY     84  60  44 W6        29.97F
CALDWELL       SUNNY     83  61  47 CALM      30.00S
SOMERVILLE     SUNNY     83  61  47 N5        29.98F
ALLAIRE*       SUNNY     85  62  46 VRB3      30.00S
TOMS RIVER*    MOSUNNY   86  64  47 VRB5      30.00S

$$
PAZ043-044-047-054-055-060>062-066>071-241500-
EASTERN PENNSYLVANIA

CITY           SKY/WX    TMP DP  RH WIND       PRES   REMARKS
PHILADELPHIA   MOSUNNY   87  61  41 VRB5      30.00R
NORTH PHILA    SUNNY     87  63  44 NE6       30.01S
BLUE BELL*     SUNNY     82  63  51 CALM      30.00S
DOYLESTOWN     SUNNY     83  60  45 CALM      30.00F
QUAKERTOWN*    SUNNY     84  61  45 CALM      30.02F
PERKASIE*      FAIR      84  61  45 N3        30.03S
POTTSTOWN      SUNNY     85  60  42 N5        30.02F
LANCASTER      SUNNY     81  68  64 CALM      30.01F
COATESVILLE    SUNNY     82  61  47 CALM      30.04S
READING        SUNNY     84  58  40 N5        30.00F
ALLENTOWN      SUNNY     83  60  45 CALM      30.01F
MOUNT POCONO   SUNNY     78  32  18 N3        30.08S
HAZLETON       SUNNY     79  59  50 CALM      30.11R
LEHIGHTON      FAIR      79  61  53 CALM      30.03F
WILKES BARRE   SUNNY     80  60  50 VRB5      30.04S

$$
DEZALL-MDZ008-012-015-019-020-241500-
DELAWARE AND EASTERN MARYLAND

CITY           SKY/WX    TMP DP  RH WIND       PRES   REMARKS
WILMINGTON     SUNNY     87  63  44 NE6       30.00S
DOVER          SUNNY     85  71  63 NE8       29.98R HX  90
GEORGETOWN     SUNNY     88  68  51 NE7       29.99R HX  91
EASTON         SUNNY     86  72  62 E5        30.03R HX  92
PATUXENT       PTSUNNY   86  69  56 E6        29.98S HX  90
OCEAN CITY     SUNNY     84  68  58 NE10      29.97F
WALLOPS ISLAND FAIR      86  77  74 NE8       29.98R HX  97
CAMBRIDGE      SUNNY     86  66  51 E6        29.98R
SALISBURY      SUNNY     87  70  56 E6        29.98R HX  92

$$
PAZ001-021-NYZ056-072-MDZ011-DCZ001-241500-
OTHER NEARBY LOCATIONS

CITY           SKY/WX    TMP DP  RH WIND       PRES   REMARKS
HARRISBURG     PTSUNNY   85  64  49 VRB3      30.00F
STATE COLLEGE  SUNNY     79  63  57 CALM      30.05F
WILLIAMSPORT   MOSUNNY   79  59  50 VRB5      30.01F
BINGHAMTON     SUNNY     76  58  53 CALM      30.07S
NEW YORK CITY  MOSUNNY   81  62  52 W7        30.02R
BALTIMORE      MOSUNNY   87  63  44 E6        29.99F
WASHINGTON DC  FAIR      88  67  49 NE6       30.00S HX  91

$$




USA.gov is the U.S. government's official web portal to all federal, state and local government web resources and services.